sat.trackr.live / text

‹ back to catalog

STARLINK-2103

NORAD 47383 · 2021-005AL

PAYLOAD ACTIVE UNKNOWN

§ Identity

Operator
Country
US
Launch date
2021-01-20
Launch site
AFETR
Launch vehicle
Mass (kg)
RCS (m²)

Purposes: comms

External: N2YO · Heavens-Above · Gunter

§ Orbital elements

Epoch: 2026-05-25T00:43:37.913088Z

Period
93.95 min
Inclination
53.1613°
Eccentricity
0.0001150
Mean motion
15.32713282 rev/d
Perigee alt
466.9 km
Apogee alt
468.5 km
Semi-major
6,845.9 km
B*
1.1505e-3
RAAN
19.0978°
Arg perigee
149.3134°
Mean anomaly
210.7936°
Rev number
29,541

§ Raw data

STARLINK-21031 47383U 21005AL  26145.03029992  .00036665  00000+0  11505-2 0  99942 47383  53.1613  19.0978 0001150 149.3134 210.7936 15.32713282295415

JSON: /api/v1/satellites/47383 · /tle

For live sub-satellite position, see the globe view (requires WebGL).

§ Visibility from observer

Set your observer location to see the next 7 days of passes ≥ 10°. The values pass through the URL so the page stays shareable.

No JS? Fill the form by hand. The geolocation button needs JavaScript.